Location: Appleton
(44.2618°N, 88.4157°W)
Time: 11:12:09
(UTC+00:00)

Explorer 11/Cluster Stage 4 - All Passes

Search period start: 01 March 2021 00:00
Search period end: 11 March 2021 00:00
Orbit: 467 x 1257 km, 28.8° (Epoch: 28 February)

Date Brightness Start Highest point End Pass type
(mag) Time Alt. Az. Time Alt. Az. Time Alt. Az.
01 Mar - 09:45:38 10° S 09:48:46 13° SSE 09:52:06 10° SE visible
01 Mar - 11:30:55 10° SW 11:36:35 23° S 11:42:40 10° ESE visible
01 Mar - 13:18:39 10° WSW 13:24:46 25° S 13:31:05 10° SE daylight
01 Mar - 15:08:13 10° SW 15:12:52 16° SSW 15:17:27 10° SSE daylight
02 Mar - 09:34:11 10° S 09:37:30 14° SSE 09:41:04 10° SE visible
02 Mar - 11:19:46 10° SW 11:25:18 24° S 11:31:21 10° ESE visible
02 Mar - 13:07:33 10° WSW 13:13:29 24° S 13:19:39 10° SE daylight
02 Mar - 14:57:23 10° SW 15:01:32 15° SSW 15:05:42 10° S daylight
03 Mar - 09:22:50 10° S 09:26:15 15° SSE 09:29:57 10° SE visible
03 Mar - 11:08:39 10° SW 11:14:02 23° S 11:19:59 10° SE visible
03 Mar - 12:56:31 10° WSW 13:02:11 23° S 13:08:10 10° SE daylight
03 Mar - 14:46:43 10° SW 14:50:13 13° SSW 14:53:45 10° S daylight
04 Mar - 09:11:35 10° SSW 09:15:01 15° SSE 09:18:46 10° SE visible
04 Mar - 10:57:36 10° SW 11:02:47 23° S 11:08:35 10° SE visible
04 Mar - 12:45:34 10° SW 12:50:54 21° S 12:56:36 10° SE daylight
04 Mar - 14:36:24 10° SW 14:38:54 12° SSW 14:41:26 10° S daylight
05 Mar - 09:00:25 10° SSW 09:03:49 15° SSE 09:07:32 10° SE visible
05 Mar - 10:46:36 10° SW 10:51:34 22° S 10:57:08 10° SE visible
05 Mar - 12:34:41 10° SW 12:39:38 19° SSW 12:44:58 10° SSE daylight
06 Mar - 08:49:20 10° SSW 08:52:37 15° SSE 08:56:16 10° SE visible
06 Mar - 10:35:40 10° SW 10:40:22 21° S 10:45:40 10° SE visible
06 Mar - 12:23:53 10° SW 12:28:23 18° SSW 12:33:14 10° SSE daylight
07 Mar - 08:38:18 10° SSW 08:41:28 15° SSE 08:44:58 10° SE visible
07 Mar - 10:24:47 10° SW 10:29:11 20° S 10:34:09 10° SE visible
07 Mar - 12:13:13 10° SW 12:17:09 16° SSW 12:21:23 10° SSE daylight
08 Mar - 08:27:20 10° SSW 08:30:19 15° SSE 08:33:38 10° SE visible
08 Mar - 10:13:58 10° SW 10:18:01 19° S 10:22:35 10° SE visible
08 Mar - 12:02:44 10° SW 12:05:56 14° SSW 12:09:21 10° SSE daylight
09 Mar - 08:16:26 10° SSW 08:19:13 15° SSE 08:22:17 10° SE visible
09 Mar - 10:03:13 10° SW 10:06:52 17° S 10:10:58 10° SE visible
09 Mar - 11:52:36 10° SW 11:54:44 12° SSW 11:56:59 10° S daylight
10 Mar - 08:05:35 10° SSW 08:08:07 14° S 08:10:53 10° SE visible
10 Mar - 09:52:34 10° SW 09:55:44 15° S 09:59:16 10° SSE visible
